TimeEDT,TemperatureF,Dew PointF,Humidity,Sea Level PressureIn,VisibilityMPH,Wind Direction,Wind SpeedMPH,Gust SpeedMPH,PrecipitationIn,Events,Conditions,WindDirDegrees,DateUTC
12:20 AM,60.8,53.6,77,29.84,10.0,NW,4.6,-,N/A,,Mostly Cloudy,310,2013-06-14 04:20:00
12:53 AM,59.0,54.0,83,29.85,10.0,NW,6.9,-,N/A,,Mostly Cloudy,310,2013-06-14 04:53:00
1:53 AM,59.0,55.0,87,29.85,10.0,WNW,8.1,-,N/A,,Mostly Cloudy,300,2013-06-14 05:53:00
2:53 AM,57.9,55.0,90,29.86,10.0,WNW,5.8,-,N/A,,Mostly Cloudy,290,2013-06-14 06:53:00
3:23 AM,57.2,55.4,94,29.86,10.0,WNW,4.6,-,N/A,,Scattered Clouds,290,2013-06-14 07:23:00
3:53 AM,57.0,54.0,89,29.86,10.0,WNW,4.6,-,N/A,,Clear,290,2013-06-14 07:53:00
4:53 AM,55.9,54.0,93,29.87,10.0,West,4.6,-,N/A,,Clear,280,2013-06-14 08:53:00
5:53 AM,55.0,54.0,96,29.88,4.0,West,3.5,-,N/A,,Clear,260,2013-06-14 09:53:00
6:12 AM,55.4,53.6,94,29.89,2.0,Calm,Calm,-,N/A,,Clear,0,2013-06-14 10:12:00
6:20 AM,53.6,53.6,100,29.90,0.5,SE,4.6,-,N/A,Fog,Fog,130,2013-06-14 10:20:00
6:36 AM,53.6,53.6,100,29.91,1.0,SE,3.5,-,N/A,,Mostly Cloudy,130,2013-06-14 10:36:00
6:45 AM,55.4,53.6,94,29.91,3.0,Calm,Calm,-,N/A,,Overcast,0,2013-06-14 10:45:00
6:51 AM,55.4,55.4,100,29.91,1.8,Calm,Calm,-,N/A,,Overcast,0,2013-06-14 10:51:00
6:53 AM,55.0,55.0,100,29.91,1.8,Calm,Calm,-,N/A,,Overcast,0,2013-06-14 10:53:00
7:03 AM,55.4,53.6,94,29.92,2.5,West,3.5,-,N/A,,Overcast,280,2013-06-14 11:03:00
7:11 AM,55.4,55.4,100,29.92,3.0,Calm,Calm,-,N/A,,Overcast,0,2013-06-14 11:11:00
7:53 AM,57.0,55.9,96,29.93,5.0,Calm,Calm,-,N/A,,Overcast,0,2013-06-14 11:53:00
8:53 AM,57.9,55.0,90,29.96,7.0,NNW,5.8,-,N/A,,Overcast,330,2013-06-14 12:53:00
9:53 AM,59.0,55.0,87,29.98,10.0,NW,6.9,-,N/A,,Overcast,320,2013-06-14 13:53:00
10:33 AM,60.8,55.4,82,29.99,10.0,NW,6.9,-,N/A,,Overcast,320,2013-06-14 14:33:00
10:53 AM,60.1,55.0,83,30.00,10.0,NW,8.1,-,N/A,,Overcast,310,2013-06-14 14:53:00
11:19 AM,60.8,55.4,82,30.01,10.0,NNW,9.2,-,N/A,,Overcast,330,2013-06-14 15:19:00
11:53 AM,62.1,55.9,80,30.02,10.0,Variable,6.9,-,N/A,,Overcast,0,2013-06-14 15:53:00
12:53 PM,64.0,55.9,75,30.02,10.0,NNW,6.9,-,N/A,,Overcast,330,2013-06-14 16:53:00
1:21 PM,66.2,57.2,73,30.03,10.0,NNW,9.2,-,N/A,,Overcast,330,2013-06-14 17:21:00
1:53 PM,66.9,57.0,70,30.02,10.0,NNW,5.8,-,N/A,,Overcast,340,2013-06-14 17:53:00
2:53 PM,70.0,55.9,61,30.01,10.0,Variable,4.6,-,N/A,,Scattered Clouds,0,2013-06-14 18:53:00
3:53 PM,72.0,55.9,57,30.01,10.0,North,9.2,-,N/A,,Mostly Cloudy,360,2013-06-14 19:53:00
4:53 PM,73.0,55.0,53,30.00,10.0,Calm,Calm,-,N/A,,Scattered Clouds,0,2013-06-14 20:53:00
5:53 PM,72.0,55.0,55,29.99,10.0,NE,5.8,-,N/A,,Scattered Clouds,40,2013-06-14 21:53:00
6:53 PM,72.0,54.0,53,30.00,10.0,NW,10.4,-,N/A,,Clear,320,2013-06-14 22:53:00
7:53 PM,71.1,55.0,57,30.01,10.0,NNW,6.9,-,N/A,,Overcast,340,2013-06-14 23:53:00
8:53 PM,66.9,55.0,66,30.03,10.0,NW,5.8,-,N/A,,Mostly Cloudy,320,2013-06-15 00:53:00
9:53 PM,64.9,55.0,70,30.04,10.0,NNW,3.5,-,N/A,,Clear,340,2013-06-15 01:53:00
10:53 PM,63.0,55.0,75,30.08,10.0,NNW,6.9,-,N/A,,Clear,330,2013-06-15 02:53:00
11:53 PM,61.0,55.0,81,30.09,10.0,NNW,4.6,-,N/A,,Clear,340,2013-06-15 03:53:00